JAL903 RJTT-ROAH

Flight info

Callsign JAL903
Flight time 2h 23m
Altitude 40000
Route LAXAS Y56 TOHME Y54 KOHWA Y12 AYANO Y128 LAXEL Y52 TONAR Y525 IHEYA
Aircraft B789/H-SDE1E2E3FGHIJ2J3J4J5M1RWXY/LB1D1

Departure

Time 2026-05-05 17:51
Airport Tokyo Haneda International Airport (RJTT)

Arrival

Time 2026-05-05 20:14
Airport Naha International Airport (ROAH)
Time Latitude Longitude Altitude Speed Heading
2026-05-05 16:58 35.54643 139.78409 30 ft 0 kts 56°
2026-05-05 17:39 35.54638 139.78400 30 ft 4 kts 57°
2026-05-05 17:39 35.54624 139.78372 29 ft 4 kts 59°
2026-05-05 17:40 35.54612 139.78347 29 ft 3 kts 58°
2026-05-05 17:40 35.54595 139.78323 28 ft 4 kts 32°
2026-05-05 17:40 35.54571 139.78313 29 ft 4 kts 356°
2026-05-05 17:40 35.54546 139.78320 28 ft 4 kts 334°
2026-05-05 17:41 35.54525 139.78334 29 ft 1 kts 331°
2026-05-05 17:42 35.54527 139.78333 30 ft 3 kts 331°
2026-05-05 17:42 35.54574 139.78299 30 ft 11 kts 327°
2026-05-05 17:43 35.54589 139.78229 29 ft 9 kts 259°
2026-05-05 17:43 35.54592 139.78171 29 ft 5 kts 297°
2026-05-05 17:43 35.54610 139.78151 29 ft 0 kts 324°
2026-05-05 17:43 35.54620 139.78142 29 ft 5 kts 327°
2026-05-05 17:44 35.54626 139.78138 29 ft 1 kts 328°
2026-05-05 17:44 35.54654 139.78116 29 ft 6 kts 329°
2026-05-05 17:44 35.54696 139.78086 29 ft 8 kts 329°
2026-05-05 17:44 35.54728 139.78062 29 ft 9 kts 329°
2026-05-05 17:45 35.54823 139.77995 29 ft 17 kts 330°
2026-05-05 17:45 35.54895 139.77944 29 ft 18 kts 330°
2026-05-05 17:45 35.55006 139.77865 29 ft 19 kts 330°
2026-05-05 17:45 35.55119 139.77784 29 ft 19 kts 329°
2026-05-05 17:46 35.55238 139.77700 29 ft 20 kts 330°
2026-05-05 17:46 35.55361 139.77613 29 ft 21 kts 330°
2026-05-05 17:46 35.55488 139.77524 29 ft 21 kts 330°
2026-05-05 17:46 35.55618 139.77432 29 ft 22 kts 329°
2026-05-05 17:47 35.55750 139.77337 28 ft 22 kts 330°
2026-05-05 17:47 35.55887 139.77258 28 ft 17 kts
2026-05-05 17:47 35.55937 139.77312 28 ft 13 kts 57°
2026-05-05 17:47 35.56009 139.77462 28 ft 27 kts 59°
2026-05-05 17:48 35.56106 139.77668 29 ft 28 kts 60°
2026-05-05 17:48 35.56206 139.77874 27 ft 28 kts 59°
2026-05-05 17:48 35.56304 139.78081 28 ft 24 kts 59°
2026-05-05 17:48 35.56343 139.78152 28 ft 8 kts 43°
2026-05-05 17:49 35.56398 139.78166 28 ft 11 kts 342°
2026-05-05 17:49 35.56468 139.78119 27 ft 12 kts 330°
2026-05-05 17:49 35.56534 139.78050 28 ft 14 kts 306°
2026-05-05 17:49 35.56593 139.77950 28 ft 15 kts 305°
2026-05-05 17:50 35.56654 139.77844 28 ft 16 kts 305°
2026-05-05 17:50 35.56712 139.77734 30 ft 14 kts 287°
2026-05-05 17:50 35.56686 139.77650 30 ft 0 kts 214°
2026-05-05 17:50 35.56658 139.77628 30 ft 26 kts 214°
2026-05-05 17:51 35.56272 139.77299 30 ft 108 kts 215°
2026-05-05 17:51 35.55452 139.76598 87 ft 173 kts 217°
2026-05-05 17:51 35.54450 139.75709 646 ft 181 kts 214°
2026-05-05 17:51 35.53303 139.74942 995 ft 201 kts 192°
2026-05-05 17:52 35.51899 139.75190 1670 ft 206 kts 167°
2026-05-05 17:52 35.50468 139.75552 2294 ft 214 kts 173°
2026-05-05 17:52 35.48973 139.75740 3036 ft 217 kts 178°
2026-05-05 17:52 35.47460 139.75872 3785 ft 219 kts 178°
2026-05-05 17:53 35.45919 139.76025 4424 ft 226 kts 178°
2026-05-05 17:53 35.44343 139.76154 5068 ft 230 kts 182°
2026-05-05 17:53 35.42720 139.76137 5719 ft 236 kts 182°
2026-05-05 17:53 35.41069 139.76152 6329 ft 243 kts 181°
2026-05-05 17:54 35.39369 139.76165 6939 ft 248 kts 180°
2026-05-05 17:54 35.37610 139.76169 7577 ft 252 kts 181°
2026-05-05 17:54 35.35846 139.76173 8254 ft 254 kts 180°
2026-05-05 17:54 35.34083 139.76541 8738 ft 267 kts 164°
2026-05-05 17:55 35.32257 139.77224 9310 ft 281 kts 165°
2026-05-05 17:55 35.30324 139.77920 9731 ft 302 kts 165°
2026-05-05 17:55 35.28211 139.78657 10019 ft 327 kts 165°
2026-05-05 17:55 35.25920 139.79457 10033 ft 359 kts 165°
2026-05-05 17:56 35.23392 139.80149 10010 ft 386 kts 175°
2026-05-05 17:56 35.20634 139.79932 10033 ft 411 kts 191°
2026-05-05 17:56 35.17882 139.78771 10315 ft 418 kts 206°
2026-05-05 17:56 35.15531 139.76783 11407 ft 406 kts 220°
2026-05-05 17:57 35.13716 139.74219 12660 ft 393 kts 232°
2026-05-05 17:57 35.12238 139.71481 13925 ft 380 kts 234°
2026-05-05 17:57 35.10866 139.68750 14707 ft 378 kts 237°
2026-05-05 17:57 35.09863 139.65746 15206 ft 386 kts 251°
2026-05-05 17:58 35.09338 139.62514 15787 ft 390 kts 258°
2026-05-05 17:58 35.08956 139.59227 16367 ft 391 kts 259°
2026-05-05 17:58 35.08489 139.55953 16924 ft 392 kts 256°
2026-05-05 17:58 35.07887 139.52697 17486 ft 394 kts 255°
2026-05-05 17:59 35.07298 139.49427 18046 ft 396 kts 256°
2026-05-05 17:59 35.06774 139.46121 18580 ft 398 kts 257°
2026-05-05 17:59 35.06250 139.42793 19071 ft 399 kts 257°
2026-05-05 17:59 35.05695 139.39481 19639 ft 398 kts 256°
2026-05-05 18:00 35.05131 139.36182 20219 ft 396 kts 256°
2026-05-05 18:00 35.04589 139.32942 20810 ft 394 kts 257°
2026-05-05 18:00 35.04043 139.29623 21376 ft 393 kts 257°
2026-05-05 18:00 35.03499 139.26358 21929 ft 392 kts 257°
2026-05-05 18:01 35.02957 139.23149 22461 ft 391 kts 257°
2026-05-05 18:01 35.02411 139.19902 22976 ft 391 kts 257°
2026-05-05 18:01 35.01867 139.16659 23493 ft 390 kts 257°
2026-05-05 18:01 35.01323 139.13421 23967 ft 389 kts 257°
2026-05-05 18:02 35.00777 139.10188 24361 ft 389 kts 257°
2026-05-05 18:02 35.00228 139.06944 24669 ft 392 kts 257°
2026-05-05 18:02 34.99674 139.03676 24996 ft 394 kts 257°
2026-05-05 18:02 34.99119 139.00401 25358 ft 395 kts 257°
2026-05-05 18:03 34.98711 138.97084 25683 ft 397 kts 263°
2026-05-05 18:03 34.98550 138.93720 26052 ft 398 kts 264°
2026-05-05 18:03 34.98373 138.90355 26434 ft 398 kts 264°
2026-05-05 18:03 34.98191 138.86995 26821 ft 398 kts 263°
2026-05-05 18:04 34.98015 138.83628 27162 ft 398 kts 263°
2026-05-05 18:04 34.97841 138.80253 27535 ft 399 kts 264°
2026-05-05 18:04 34.97663 138.76876 27911 ft 400 kts 264°
2026-05-05 18:04 34.97481 138.73484 28234 ft 402 kts 264°
2026-05-05 18:05 34.97298 138.70072 28530 ft 405 kts 264°
2026-05-05 18:05 34.97114 138.66645 28892 ft 406 kts 264°
2026-05-05 18:05 34.96930 138.63212 29262 ft 406 kts 264°
2026-05-05 18:05 34.96743 138.59770 29643 ft 407 kts 264°
2026-05-05 18:06 34.96554 138.56322 30005 ft 408 kts 264°
2026-05-05 18:06 34.96428 138.54034 30241 ft 409 kts 264°
2026-05-05 18:06 34.96174 138.49399 30663 ft 411 kts 263°
2026-05-05 18:06 34.95980 138.45917 30920 ft 413 kts 263°
2026-05-05 18:07 34.95785 138.42422 31248 ft 413 kts 263°
2026-05-05 18:07 34.95590 138.38937 31668 ft 411 kts 263°
2026-05-05 18:07 34.95396 138.35477 32126 ft 408 kts 263°
2026-05-05 18:07 34.95202 138.32039 32638 ft 405 kts 262°
2026-05-05 18:08 34.95008 138.28634 33142 ft 401 kts 262°
2026-05-05 18:08 34.94815 138.25262 33671 ft 397 kts 262°
2026-05-05 18:08 34.94624 138.21925 34203 ft 393 kts 262°
2026-05-05 18:08 34.94434 138.18618 34646 ft 388 kts 262°
2026-05-05 18:09 34.94243 138.15347 34996 ft 386 kts 262°
2026-05-05 18:09 34.94052 138.12083 35221 ft 387 kts 262°
2026-05-05 18:09 34.93858 138.08792 35237 ft 390 kts 262°
2026-05-05 18:10 34.93479 138.02287 35236 ft 379 kts 262°
2026-05-05 18:10 34.93094 137.95902 35242 ft 382 kts 262°
2026-05-05 18:11 34.92708 137.89428 35252 ft 383 kts 262°
2026-05-05 18:11 34.92314 137.82934 35269 ft 381 kts 262°
2026-05-05 18:12 34.91923 137.76523 35259 ft 382 kts 262°
2026-05-05 18:12 34.91484 137.70072 35256 ft 381 kts 259°
2026-05-05 18:13 34.90256 137.63846 35262 ft 376 kts 250°
2026-05-05 18:13 34.88462 137.57876 35251 ft 374 kts 250°
2026-05-05 18:14 34.86682 137.51915 35246 ft 375 kts 250°
2026-05-05 18:14 34.84899 137.45990 35259 ft 370 kts 250°
2026-05-05 18:14 34.84059 137.43039 35433 ft 369 kts 251°
2026-05-05 18:15 34.83235 137.40074 35592 ft 371 kts 251°
2026-05-05 18:15 34.82390 137.37106 35760 ft 373 kts 250°
2026-05-05 18:15 34.81525 137.34127 35923 ft 374 kts 250°
2026-05-05 18:15 34.80666 137.31143 36096 ft 374 kts 251°
2026-05-05 18:16 34.79812 137.28154 36215 ft 374 kts 251°
2026-05-05 18:16 34.78100 137.22195 36223 ft 371 kts 250°
2026-05-05 18:17 34.76398 137.16295 36224 ft 369 kts 251°
2026-05-05 18:17 34.74710 137.10446 36226 ft 369 kts 251°
2026-05-05 18:18 34.72994 137.04519 36229 ft 369 kts 251°
2026-05-05 18:18 34.70811 136.98882 36225 ft 371 kts 242°
2026-05-05 18:19 34.67736 136.93873 36226 ft 376 kts 233°
2026-05-05 18:19 34.63804 136.89612 36230 ft 382 kts 224°
2026-05-05 18:20 34.59560 136.85695 36238 ft 384 kts 225°
2026-05-05 18:20 34.55311 136.81758 36242 ft 385 kts 225°
2026-05-05 18:21 34.51051 136.77830 36239 ft 385 kts 225°
2026-05-05 18:21 34.46800 136.73908 36238 ft 383 kts 225°
2026-05-05 18:22 34.42562 136.70003 36234 ft 381 kts 224°
2026-05-05 18:22 34.38333 136.66113 36225 ft 384 kts 225°
2026-05-05 18:23 34.34087 136.62218 36235 ft 383 kts 224°
2026-05-05 18:23 34.29838 136.58318 36239 ft 384 kts 225°
2026-05-05 18:24 34.25633 136.54356 36231 ft 382 kts 225°
2026-05-05 18:24 34.21427 136.50412 36225 ft 383 kts 225°
2026-05-05 18:25 34.17219 136.46475 36225 ft 382 kts 225°
2026-05-05 18:25 34.13014 136.42540 36224 ft 382 kts 225°
2026-05-05 18:26 34.08666 136.38796 36235 ft 389 kts 219°
2026-05-05 18:26 34.03838 136.35726 36223 ft 392 kts 217°
2026-05-05 18:27 33.99011 136.32660 36228 ft 393 kts 217°
2026-05-05 18:27 33.94159 136.29609 36229 ft 393 kts 217°
2026-05-05 18:28 33.86880 136.25024 36231 ft 394 kts 217°
2026-05-05 18:28 33.82028 136.21977 36225 ft 394 kts 217°
2026-05-05 18:29 33.77163 136.18923 36227 ft 394 kts 217°
2026-05-05 18:29 33.72276 136.15857 36221 ft 399 kts 216°
2026-05-05 18:30 33.67372 136.12794 36221 ft 400 kts 216°
2026-05-05 18:30 33.62453 136.09714 36221 ft 398 kts 216°
2026-05-05 18:31 33.57546 136.06651 36213 ft 398 kts 216°
2026-05-05 18:31 33.52636 136.03590 36212 ft 398 kts 216°
2026-05-05 18:32 33.48518 136.01024 36214 ft 399 kts 216°
2026-05-05 18:32 33.43556 135.97937 36220 ft 402 kts 216°
2026-05-05 18:33 33.38586 135.94851 36212 ft 403 kts 216°
2026-05-05 18:33 33.33598 135.91755 36214 ft 404 kts 216°
2026-05-05 18:34 33.28612 135.88668 36205 ft 403 kts 216°
2026-05-05 18:34 33.23675 135.85610 36168 ft 402 kts 216°
2026-05-05 18:35 33.18672 135.82514 36206 ft 408 kts 215°
2026-05-05 18:35 33.13629 135.79409 36204 ft 407 kts 215°
2026-05-05 18:36 33.08614 135.76314 36209 ft 405 kts 216°
2026-05-05 18:36 33.03618 135.73239 36203 ft 404 kts 216°
2026-05-05 18:37 32.98614 135.70160 36204 ft 405 kts 215°
2026-05-05 18:37 32.93588 135.67075 36197 ft 408 kts 215°
2026-05-05 18:38 32.88538 135.63978 36198 ft 408 kts 215°
2026-05-05 18:38 32.83487 135.60884 36194 ft 408 kts 215°
2026-05-05 18:39 32.78445 135.57800 36186 ft 408 kts 215°
2026-05-05 18:39 32.73393 135.54713 36183 ft 408 kts 215°
2026-05-05 18:40 32.68340 135.51629 36191 ft 410 kts 215°
2026-05-05 18:40 32.63254 135.48531 36194 ft 411 kts 215°
2026-05-05 18:41 32.58120 135.45402 36197 ft 421 kts 214°
2026-05-05 18:41 32.52836 135.42191 36200 ft 433 kts 214°
2026-05-05 18:42 32.47403 135.38896 36197 ft 441 kts 214°
2026-05-05 18:42 32.41975 135.35606 36185 ft 445 kts 214°
2026-05-05 18:43 32.36401 135.32234 36189 ft 446 kts 214°
2026-05-05 18:43 32.30913 135.28917 36189 ft 446 kts 214°
2026-05-05 18:44 32.25348 135.25556 36189 ft 447 kts 214°
2026-05-05 18:44 32.19812 135.22222 36186 ft 446 kts 214°
2026-05-05 18:45 32.14269 135.18879 36174 ft 450 kts 214°
2026-05-05 18:45 32.09216 135.14812 36166 ft 438 kts 226°
2026-05-05 18:46 32.05159 135.09559 36172 ft 430 kts 236°
2026-05-05 18:46 32.01501 135.03943 36177 ft 432 kts 235°
2026-05-05 18:47 31.97826 134.98329 36179 ft 432 kts 235°
2026-05-05 18:47 31.94181 134.92753 36170 ft 429 kts 235°
2026-05-05 18:48 31.90511 134.87156 36172 ft 436 kts 235°
2026-05-05 18:48 31.86807 134.81513 36173 ft 435 kts 235°
2026-05-05 18:49 31.83110 134.75887 36171 ft 435 kts 235°
2026-05-05 18:49 31.79410 134.70266 36172 ft 435 kts 235°
2026-05-05 18:50 31.75704 134.64645 36171 ft 435 kts 235°
2026-05-05 18:50 31.71998 134.59032 36168 ft 433 kts 234°
2026-05-05 18:51 31.68316 134.53463 36162 ft 433 kts 234°
2026-05-05 18:51 31.64604 134.47857 36164 ft 434 kts 234°
2026-05-05 18:52 31.60902 134.42275 36157 ft 432 kts 234°
2026-05-05 18:52 31.57238 134.36760 36133 ft 418 kts 234°
2026-05-05 18:53 31.55483 134.34124 36140 ft 402 kts 234°
2026-05-05 18:53 31.53786 134.31571 36143 ft 393 kts 234°
2026-05-05 18:53 31.50436 134.26533 36152 ft 392 kts 234°
2026-05-05 18:54 31.47067 134.21483 36167 ft 394 kts 234°
2026-05-05 18:54 31.43693 134.16428 36153 ft 395 kts 234°
2026-05-05 18:55 31.40322 134.11385 36150 ft 396 kts 234°
2026-05-05 18:55 31.36923 134.06309 36148 ft 396 kts 234°
2026-05-05 18:56 31.33526 134.01239 36137 ft 395 kts 233°
2026-05-05 18:56 31.30130 133.96179 36153 ft 397 kts 233°
2026-05-05 18:57 31.26719 133.91104 36154 ft 397 kts 233°
2026-05-05 18:57 31.23305 133.86030 36153 ft 397 kts 233°
2026-05-05 18:58 31.19886 133.80955 36144 ft 398 kts 233°
2026-05-05 18:58 31.16454 133.75868 36147 ft 399 kts 233°
2026-05-05 18:59 31.13025 133.70792 36145 ft 398 kts 233°
2026-05-05 18:59 31.09603 133.65732 36137 ft 396 kts 233°
2026-05-05 19:00 31.06185 133.60688 36153 ft 397 kts 233°
2026-05-05 19:00 31.02757 133.55630 36154 ft 397 kts 233°
2026-05-05 19:01 30.99328 133.50577 36150 ft 398 kts 233°
2026-05-05 19:01 30.95898 133.45527 36122 ft 398 kts 233°
2026-05-05 19:02 30.92444 133.40452 36144 ft 400 kts 233°
2026-05-05 19:02 30.88996 133.35389 36140 ft 398 kts 233°
2026-05-05 19:03 30.85555 133.30343 36138 ft 398 kts 233°
2026-05-05 19:03 30.82134 133.25334 36133 ft 399 kts 233°
2026-05-05 19:04 30.78665 133.20262 36140 ft 401 kts 233°
2026-05-05 19:04 30.75194 133.15192 36133 ft 400 kts 233°
2026-05-05 19:05 30.71756 133.10177 36122 ft 395 kts 233°
2026-05-05 19:05 30.68337 133.05195 36120 ft 395 kts 233°
2026-05-05 19:06 30.64881 133.00168 36134 ft 401 kts 233°
2026-05-05 19:06 30.61403 132.95113 36138 ft 400 kts 233°
2026-05-05 19:07 30.57926 132.90067 36129 ft 400 kts 233°
2026-05-05 19:07 30.54449 132.85028 36128 ft 400 kts 233°
2026-05-05 19:08 30.50974 132.79998 36133 ft 399 kts 233°
2026-05-05 19:08 30.47501 132.74976 36131 ft 399 kts 233°
2026-05-05 19:09 30.44024 132.69955 36107 ft 399 kts 233°
2026-05-05 19:09 30.40539 132.64931 36115 ft 401 kts 233°
2026-05-05 19:10 30.37040 132.59892 36122 ft 402 kts 233°
2026-05-05 19:10 30.33535 132.54850 36118 ft 401 kts 233°
2026-05-05 19:11 30.30042 132.49832 36107 ft 399 kts 233°
2026-05-05 19:11 30.26555 132.44829 36106 ft 400 kts 233°
2026-05-05 19:12 30.23061 132.39822 36119 ft 400 kts 233°
2026-05-05 19:12 30.19565 132.34818 36107 ft 399 kts 233°
2026-05-05 19:13 30.16089 132.29849 36095 ft 397 kts 233°
2026-05-05 19:13 30.12604 132.24874 36093 ft 399 kts 233°
2026-05-05 19:14 30.09107 132.19888 36096 ft 400 kts 233°
2026-05-05 19:14 30.05615 132.14917 36099 ft 396 kts 233°
2026-05-05 19:15 30.02150 132.09986 36095 ft 394 kts 233°
2026-05-05 19:15 29.98691 132.05073 36089 ft 395 kts 233°
2026-05-05 19:16 29.95226 132.00157 36091 ft 395 kts 233°
2026-05-05 19:16 29.91768 131.95257 36099 ft 393 kts 233°
2026-05-05 19:17 29.88901 131.91198 36086 ft 393 kts 233°
2026-05-05 19:17 29.85437 131.86300 36093 ft 395 kts 233°
2026-05-05 19:18 29.81963 131.81394 36088 ft 395 kts 233°
2026-05-05 19:18 29.78403 131.76565 36101 ft 395 kts 232°
2026-05-05 19:19 29.74859 131.71756 36092 ft 394 kts 232°
2026-05-05 19:19 29.71296 131.66944 36089 ft 395 kts 232°
2026-05-05 19:20 29.67731 131.62128 36090 ft 396 kts 232°
2026-05-05 19:20 29.64184 131.57344 36093 ft 396 kts 232°
2026-05-05 19:21 29.60619 131.52540 36082 ft 394 kts 232°
2026-05-05 19:21 29.57064 131.47757 36084 ft 393 kts 232°
2026-05-05 19:22 29.53512 131.42982 36080 ft 393 kts 232°
2026-05-05 19:22 29.49959 131.38213 36076 ft 393 kts 232°
2026-05-05 19:23 29.46411 131.33455 36081 ft 392 kts 232°
2026-05-05 19:23 29.42853 131.28689 36083 ft 394 kts 232°
2026-05-05 19:24 29.39284 131.23915 36081 ft 395 kts 232°
2026-05-05 19:24 29.35706 131.19135 36084 ft 394 kts 232°
2026-05-05 19:25 29.32098 131.14317 36084 ft 404 kts 232°
2026-05-05 19:25 29.28368 131.09345 36088 ft 418 kts 232°
2026-05-05 19:26 29.24522 131.04225 36089 ft 431 kts 231°
2026-05-05 19:26 29.20561 130.98959 36094 ft 437 kts 231°
2026-05-05 19:27 29.16603 130.93704 36084 ft 435 kts 231°
2026-05-05 19:27 29.12654 130.88466 36076 ft 435 kts 231°
2026-05-05 19:28 29.08705 130.83237 36073 ft 435 kts 231°
2026-05-05 19:28 29.04749 130.78004 36064 ft 435 kts 231°
2026-05-05 19:29 29.00792 130.72776 36072 ft 434 kts 232°
2026-05-05 19:29 28.96841 130.67563 36073 ft 434 kts 232°
2026-05-05 19:30 28.92891 130.62358 36069 ft 433 kts 232°
2026-05-05 19:30 28.88942 130.57161 36052 ft 433 kts 232°
2026-05-05 19:31 28.85002 130.51981 36072 ft 433 kts 232°
2026-05-05 19:31 28.81047 130.46790 36092 ft 434 kts 232°
2026-05-05 19:32 28.77077 130.41585 36082 ft 436 kts 232°
2026-05-05 19:32 28.73098 130.36375 36073 ft 434 kts 232°
2026-05-05 19:33 28.69135 130.31192 36070 ft 434 kts 232°
2026-05-05 19:33 28.65196 130.26047 36071 ft 434 kts 232°
2026-05-05 19:34 28.61219 130.20859 36078 ft 436 kts 232°
2026-05-05 19:35 28.55243 130.13075 36060 ft 434 kts 232°
2026-05-05 19:35 28.51269 130.07906 36055 ft 434 kts 232°
2026-05-05 19:36 28.47293 130.02742 36066 ft 434 kts 231°
2026-05-05 19:36 28.43317 129.97585 36028 ft 433 kts 231°
2026-05-05 19:37 28.39333 129.92422 36046 ft 436 kts 231°
2026-05-05 19:37 28.35380 129.87311 36040 ft 425 kts 231°
2026-05-05 19:38 28.31497 129.82288 36038 ft 423 kts 231°
2026-05-05 19:38 28.27613 129.77275 36029 ft 423 kts 231°
2026-05-05 19:39 28.23710 129.72243 36048 ft 426 kts 231°
2026-05-05 19:39 28.19795 129.67202 36063 ft 426 kts 231°
2026-05-05 19:40 28.15883 129.62169 36055 ft 425 kts 231°
2026-05-05 19:40 28.11979 129.57153 36046 ft 424 kts 231°
2026-05-05 19:41 28.08065 129.52132 36059 ft 424 kts 231°
2026-05-05 19:41 28.04206 129.47186 36047 ft 421 kts 231°
2026-05-05 19:42 28.00302 129.42188 36048 ft 421 kts 231°
2026-05-05 19:42 27.96425 129.37232 36045 ft 420 kts 231°
2026-05-05 19:43 27.92548 129.32278 36036 ft 420 kts 231°
2026-05-05 19:43 27.88701 129.27374 36036 ft 419 kts 231°
2026-05-05 19:44 27.84829 129.22438 36045 ft 419 kts 231°
2026-05-05 19:44 27.80957 129.17512 36047 ft 419 kts 231°
2026-05-05 19:45 27.77076 129.12577 36049 ft 422 kts 231°
2026-05-05 19:45 27.73194 129.07653 36042 ft 418 kts 231°
2026-05-05 19:46 27.69323 129.02746 36049 ft 419 kts 231°
2026-05-05 19:46 27.65443 128.97835 36047 ft 420 kts 231°
2026-05-05 19:47 27.61553 128.92917 36050 ft 420 kts 230°
2026-05-05 19:47 27.57661 128.88001 36039 ft 419 kts 230°
2026-05-05 19:48 27.53794 128.83122 36038 ft 417 kts 230°
2026-05-05 19:48 27.49933 128.78256 36045 ft 417 kts 230°
2026-05-05 19:49 27.46067 128.73391 36058 ft 417 kts 230°
2026-05-05 19:49 27.42449 128.68288 36047 ft 417 kts 238°
2026-05-05 19:50 27.39500 128.62669 36018 ft 418 kts 240°
2026-05-05 19:50 27.36531 128.57051 36027 ft 418 kts 240°
2026-05-05 19:51 27.33574 128.51421 36021 ft 418 kts 240°
2026-05-05 19:51 27.30692 128.45967 35140 ft 384 kts 240°
2026-05-05 19:51 27.29328 128.43382 32911 ft 389 kts 240°
2026-05-05 19:52 27.27929 128.40726 30440 ft 401 kts 240°
2026-05-05 19:52 27.26494 128.38010 27889 ft 406 kts 239°
2026-05-05 19:52 27.25049 128.35280 25580 ft 407 kts 239°
2026-05-05 19:52 27.23609 128.32560 23494 ft 404 kts 238°
2026-05-05 19:53 27.22180 128.29861 21213 ft 399 kts 238°
2026-05-05 19:53 27.20768 128.27196 19273 ft 392 kts 238°
2026-05-05 19:53 27.19394 128.24604 18617 ft 381 kts 238°
2026-05-05 19:53 27.18053 128.22075 18644 ft 379 kts 238°
2026-05-05 19:54 27.16710 128.19546 18611 ft 372 kts 238°
2026-05-05 19:54 27.15391 128.17061 18498 ft 374 kts 237°
2026-05-05 19:54 27.14052 128.14543 18304 ft 374 kts 237°
2026-05-05 19:54 27.12727 128.12051 18043 ft 371 kts 237°
2026-05-05 19:55 27.11402 128.09561 17760 ft 370 kts 237°
2026-05-05 19:55 27.10088 128.07091 17467 ft 368 kts 237°
2026-05-05 19:55 27.08780 128.04634 17164 ft 366 kts 237°
2026-05-05 19:55 27.07488 128.02210 16858 ft 363 kts 237°
2026-05-05 19:56 27.06203 127.99801 16547 ft 361 kts 237°
2026-05-05 19:56 27.04918 127.97392 16259 ft 359 kts 237°
2026-05-05 19:56 27.03482 127.95118 15942 ft 356 kts 228°
2026-05-05 19:56 27.01692 127.93245 15623 ft 352 kts 218°
2026-05-05 19:57 26.99624 127.91827 15327 ft 347 kts 207°
2026-05-05 19:57 26.98112 127.91144 15130 ft 348 kts 200°
2026-05-05 19:57 26.94945 127.90479 14756 ft 358 kts 187°
2026-05-05 19:57 26.92415 127.90524 14451 ft 365 kts 182°
2026-05-05 19:58 26.89878 127.90614 14144 ft 364 kts 182°
2026-05-05 19:58 26.87355 127.90689 13830 ft 363 kts 182°
2026-05-05 19:58 26.84832 127.90757 13484 ft 361 kts 182°
2026-05-05 19:58 26.82324 127.90830 13152 ft 360 kts 182°
2026-05-05 19:59 26.79819 127.90908 12822 ft 359 kts 182°
2026-05-05 19:59 26.77393 127.90986 12478 ft 330 kts 182°
2026-05-05 19:59 26.75218 127.91057 12159 ft 304 kts 182°
2026-05-05 19:59 26.73143 127.91111 11871 ft 293 kts 183°
2026-05-05 20:00 26.71141 127.91165 11549 ft 282 kts 183°
2026-05-05 20:00 26.69219 127.91223 11353 ft 270 kts 182°
2026-05-05 20:00 26.67357 127.91284 11044 ft 266 kts 183°
2026-05-05 20:00 26.65526 127.91334 10782 ft 262 kts 183°
2026-05-05 20:01 26.63707 127.91389 10559 ft 260 kts 182°
2026-05-05 20:01 26.61902 127.91442 10309 ft 260 kts 183°
2026-05-05 20:01 26.60102 127.91490 10065 ft 258 kts 182°
2026-05-05 20:01 26.58308 127.91545 9830 ft 258 kts 182°
2026-05-05 20:02 26.56504 127.91599 9577 ft 260 kts 182°
2026-05-05 20:02 26.54698 127.91653 9329 ft 260 kts 182°
2026-05-05 20:02 26.52901 127.91707 9104 ft 256 kts 181°
2026-05-05 20:02 26.51126 127.91761 8873 ft 255 kts 181°
2026-05-05 20:03 26.49359 127.91808 8642 ft 254 kts 181°
2026-05-05 20:03 26.47600 127.91858 8430 ft 254 kts 180°
2026-05-05 20:03 26.45834 127.91914 8211 ft 253 kts 180°
2026-05-05 20:03 26.44079 127.91968 7992 ft 253 kts 180°
2026-05-05 20:04 26.42314 127.92020 7772 ft 253 kts 180°
2026-05-05 20:04 26.40559 127.92071 7565 ft 252 kts 180°
2026-05-05 20:04 26.39405 127.92029 7377 ft 251 kts 189°
2026-05-05 20:04 26.37767 127.91345 7154 ft 251 kts 204°
2026-05-05 20:05 26.36183 127.90531 6960 ft 252 kts 204°
2026-05-05 20:05 26.34582 127.89706 6771 ft 253 kts 204°
2026-05-05 20:05 26.32986 127.88890 6571 ft 253 kts 203°
2026-05-05 20:05 26.31386 127.88074 6357 ft 253 kts 203°
2026-05-05 20:06 26.29793 127.87260 6175 ft 251 kts 203°
2026-05-05 20:06 26.28201 127.86446 5950 ft 252 kts 203°
2026-05-05 20:06 26.26609 127.85634 5742 ft 251 kts 202°
2026-05-05 20:06 26.25019 127.84823 5530 ft 251 kts 202°
2026-05-05 20:07 26.23431 127.84012 5324 ft 252 kts 202°
2026-05-05 20:07 26.21833 127.83197 5109 ft 253 kts 202°
2026-05-05 20:07 26.20232 127.82381 4906 ft 254 kts 201°
2026-05-05 20:07 26.18645 127.81574 4700 ft 254 kts 201°
2026-05-05 20:08 26.17030 127.80749 4476 ft 251 kts 201°
2026-05-05 20:08 26.15474 127.79957 4272 ft 249 kts 201°
2026-05-05 20:08 26.13892 127.79155 4062 ft 251 kts 201°
2026-05-05 20:08 26.12303 127.78344 3821 ft 251 kts 201°
2026-05-05 20:09 26.10721 127.77536 3616 ft 249 kts 201°
2026-05-05 20:09 26.09170 127.76746 3414 ft 241 kts 201°
2026-05-05 20:09 26.07647 127.75971 3213 ft 241 kts 201°
2026-05-05 20:09 26.06203 127.75012 2934 ft 249 kts 219°
2026-05-05 20:10 26.05239 127.73409 2666 ft 251 kts 244°
2026-05-05 20:10 26.04967 127.71518 2442 ft 245 kts 264°
2026-05-05 20:10 26.04912 127.69652 2282 ft 241 kts 264°
2026-05-05 20:10 26.04851 127.67820 2100 ft 235 kts 264°
2026-05-05 20:11 26.04968 127.66022 1843 ft 238 kts 288°
2026-05-05 20:11 26.05923 127.64554 1771 ft 230 kts 321°
2026-05-05 20:11 26.07325 127.63864 1858 ft 211 kts 353°
2026-05-05 20:11 26.08665 127.63769 1925 ft 180 kts
2026-05-05 20:12 26.09918 127.63731 1639 ft 178 kts
2026-05-05 20:12 26.11099 127.63668 1366 ft 161 kts
2026-05-05 20:12 26.12184 127.63613 1156 ft 153 kts
2026-05-05 20:12 26.13236 127.63573 962 ft 151 kts
2026-05-05 20:13 26.14284 127.63529 771 ft 150 kts
2026-05-05 20:13 26.15310 127.63464 579 ft 139 kts
2026-05-05 20:13 26.16257 127.63422 327 ft 135 kts
2026-05-05 20:13 26.17189 127.63391 147 ft 131 kts 359°
2026-05-05 20:14 26.18098 127.63346 38 ft 130 kts 359°
2026-05-05 20:14 26.18864 127.63309 22 ft 80 kts 358°
2026-05-05 20:14 26.19200 127.63293 21 ft 26 kts 358°
2026-05-05 20:14 26.19374 127.63311 26 ft 24 kts 15°
2026-05-05 20:15 26.19517 127.63378 28 ft 21 kts 28°
2026-05-05 20:15 26.19643 127.63451 25 ft 19 kts 23°
2026-05-05 20:15 26.19764 127.63456 25 ft 16 kts 357°
2026-05-05 20:15 26.19876 127.63451 25 ft 15 kts 357°
2026-05-05 20:16 26.19975 127.63446 24 ft 13 kts 358°
2026-05-05 20:16 26.20060 127.63442 25 ft 11 kts 358°
2026-05-05 20:16 26.20115 127.63440 25 ft 7 kts 358°
2026-05-05 20:16 26.20167 127.63441 25 ft 7 kts
2026-05-05 20:17 26.20201 127.63463 24 ft 6 kts 48°
2026-05-05 20:17 26.20215 127.63515 26 ft 9 kts 85°
2026-05-05 20:17 26.20218 127.63575 26 ft 7 kts 88°
2026-05-05 20:17 26.20220 127.63620 27 ft 5 kts 88°
2026-05-05 20:18 26.20223 127.63686 26 ft 14 kts 87°
2026-05-05 20:18 26.20227 127.63808 23 ft 15 kts 87°
2026-05-05 20:18 26.20231 127.63914 24 ft 13 kts 88°
2026-05-05 20:18 26.20234 127.64002 24 ft 10 kts 88°
2026-05-05 20:19 26.20237 127.64072 22 ft 8 kts 87°
2026-05-05 20:19 26.20239 127.64125 24 ft 6 kts 87°
2026-05-05 20:19 26.20241 127.64163 25 ft 4 kts 87°
2026-05-05 20:19 26.20242 127.64193 25 ft 4 kts 87°
2026-05-05 20:20 26.20244 127.64238 26 ft 7 kts 87°
2026-05-05 20:20 26.20246 127.64286 26 ft 6 kts 79°
2026-05-05 20:20 26.20263 127.64307 26 ft 2 kts 30°
2026-05-05 20:20 26.20286 127.64317 27 ft 5 kts 20°
2026-05-05 20:21 26.20322 127.64319 25 ft 6 kts 357°
2026-05-05 20:21 26.20384 127.64316 25 ft 9 kts 357°
2026-05-05 20:21 26.20436 127.64313 25 ft 6 kts 358°
2026-05-05 20:21 26.20481 127.64311 25 ft 8 kts 358°
2026-05-05 20:22 26.20537 127.64309 23 ft 8 kts 360°
2026-05-05 20:22 26.20581 127.64318 25 ft 9 kts 19°
2026-05-05 20:22 26.20616 127.64401 20 ft 16 kts 87°
2026-05-05 20:22 26.20617 127.64435 21 ft 2 kts 87°
2026-05-05 20:23 26.20619 127.64474 25 ft 6 kts 87°
2026-05-05 20:23 26.20621 127.64522 28 ft 5 kts 87°
2026-05-05 20:23 26.20622 127.64562 25 ft 9 kts 87°
2026-05-05 20:23 26.20625 127.64652 21 ft 7 kts 88°
2026-05-05 20:24 26.20626 127.64660 21 ft 3 kts 88°
2026-05-05 20:24 26.20627 127.64690 20 ft 4 kts 88°
2026-05-05 20:24 26.20627 127.64708 20 ft 0 kts 88°
2026-05-05 20:24 26.20628 127.64711 20 ft 3 kts 88°
2026-05-05 20:25 26.20629 127.64743 22 ft 6 kts 87°
2026-05-05 20:25 26.20631 127.64792 24 ft 6 kts 87°
2026-05-05 20:25 26.20633 127.64832 25 ft 5 kts 87°
2026-05-05 20:25 26.20631 127.64876 26 ft 3 kts 107°
2026-05-05 20:26 26.20613 127.64895 32 ft 3 kts 153°
2026-05-05 20:26 26.20604 127.64900 32 ft 0 kts 152°
2026-05-05 20:26 26.20594 127.64906 26 ft 6 kts 150°
2026-05-05 20:26 26.20574 127.64920 27 ft 2 kts 149°
2026-05-05 20:27 26.20565 127.64926 26 ft 2 kts 148°
2026-05-05 20:27 26.20562 127.64928 27 ft 1 kts 149°
2026-05-05 20:27 26.20561 127.64929 27 ft 0 kts 149°